Year,Month,Day,Hour,Minute,Value (Times are PST for temperature in C)
2013,04,29,00,00,7.70
2013,04,29,00,01,7.70
2013,04,29,00,02,7.70
2013,04,29,00,03,7.70
2013,04,29,00,04,7.70
2013,04,29,00,05,7.70
2013,04,29,00,06,7.70
2013,04,29,00,07,7.70
2013,04,29,00,08,7.70
2013,04,29,00,09,7.70
2013,04,29,00,10,7.70
2013,04,29,00,11,7.70
2013,04,29,00,12,7.70
2013,04,29,00,13,7.70
2013,04,29,00,14,7.70
2013,04,29,00,15,7.70
2013,04,29,00,16,7.70
2013,04,29,00,17,7.70
2013,04,29,00,18,7.70
2013,04,29,00,19,7.70
2013,04,29,00,20,7.70
2013,04,29,00,21,7.70
2013,04,29,00,22,7.70
2013,04,29,00,23,7.70
2013,04,29,00,24,7.70
2013,04,29,00,25,7.70
2013,04,29,00,26,7.70
2013,04,29,00,27,7.80
2013,04,29,00,28,7.80
2013,04,29,00,29,7.80
2013,04,29,00,30,7.80
2013,04,29,00,31,7.80
2013,04,29,00,32,7.80
2013,04,29,00,33,7.80
2013,04,29,00,34,7.90
2013,04,29,00,35,7.90
2013,04,29,00,36,7.90
2013,04,29,00,37,7.90
2013,04,29,00,38,7.80
2013,04,29,00,39,7.80
2013,04,29,00,40,7.80
2013,04,29,00,41,7.80
2013,04,29,00,42,7.80
2013,04,29,00,43,7.80
2013,04,29,00,44,7.80
2013,04,29,00,45,7.80
2013,04,29,00,46,7.70
2013,04,29,00,47,7.70
2013,04,29,00,48,7.70
2013,04,29,00,49,7.70
2013,04,29,00,50,7.70
2013,04,29,00,51,7.70
2013,04,29,00,52,7.70
2013,04,29,00,53,7.70
2013,04,29,00,54,7.70
2013,04,29,00,55,7.70
2013,04,29,00,56,7.70
2013,04,29,00,57,7.70
2013,04,29,00,58,7.70
2013,04,29,00,59,7.70
2013,04,29,01,00,7.70
2013,04,29,01,01,7.70
2013,04,29,01,02,7.70
2013,04,29,01,03,7.70
2013,04,29,01,04,7.70
2013,04,29,01,05,7.70
2013,04,29,01,06,7.70
2013,04,29,01,07,7.70
2013,04,29,01,08,7.70
2013,04,29,01,09,7.70
2013,04,29,01,10,7.70
2013,04,29,01,11,7.60
2013,04,29,01,12,7.60
2013,04,29,01,13,7.60
2013,04,29,01,14,7.60
2013,04,29,01,15,7.60
2013,04,29,01,16,7.60
2013,04,29,01,17,7.60
2013,04,29,01,18,7.60
2013,04,29,01,19,7.50
2013,04,29,01,20,7.50
2013,04,29,01,21,7.50
2013,04,29,01,22,7.50
2013,04,29,01,23,7.50
2013,04,29,01,24,7.50
2013,04,29,01,25,7.50
2013,04,29,01,26,7.40
2013,04,29,01,27,7.40
2013,04,29,01,28,7.40
2013,04,29,01,29,7.40
2013,04,29,01,30,7.40
2013,04,29,01,31,7.40
2013,04,29,01,32,7.40
2013,04,29,01,33,7.30
2013,04,29,01,34,7.30
2013,04,29,01,35,7.30
2013,04,29,01,36,7.30
2013,04,29,01,37,7.30
2013,04,29,01,38,7.30
2013,04,29,01,39,7.30
2013,04,29,01,40,7.30
2013,04,29,01,41,7.30
2013,04,29,01,42,7.30
2013,04,29,01,43,7.30
2013,04,29,01,44,7.30
2013,04,29,01,45,7.30
2013,04,29,01,46,7.30
2013,04,29,01,47,7.30
2013,04,29,01,48,7.30
2013,04,29,01,49,7.30
2013,04,29,01,50,7.40
2013,04,29,01,51,7.40
2013,04,29,01,52,7.40
2013,04,29,01,53,7.40
2013,04,29,01,54,7.40
2013,04,29,01,55,7.40
2013,04,29,01,56,7.40
2013,04,29,01,57,7.40
2013,04,29,01,58,7.40
2013,04,29,01,59,7.50
2013,04,29,02,00,7.50
2013,04,29,02,01,7.50
2013,04,29,02,02,7.40
2013,04,29,02,03,7.40
2013,04,29,02,04,7.40
2013,04,29,02,05,7.40
2013,04,29,02,06,7.50
2013,04,29,02,07,7.50
2013,04,29,02,08,7.50
2013,04,29,02,09,7.50
2013,04,29,02,10,7.60
2013,04,29,02,11,7.60
2013,04,29,02,12,7.60
2013,04,29,02,13,7.70
2013,04,29,02,14,7.70
2013,04,29,02,15,7.70
2013,04,29,02,16,7.70
2013,04,29,02,17,7.70
2013,04,29,02,18,7.70
2013,04,29,02,19,7.70
2013,04,29,02,20,7.70
2013,04,29,02,21,7.70
2013,04,29,02,22,7.70
2013,04,29,02,23,7.70
2013,04,29,02,24,7.60
2013,04,29,02,25,7.60
2013,04,29,02,26,7.60
2013,04,29,02,27,7.60
2013,04,29,02,28,7.60
2013,04,29,02,29,7.60
2013,04,29,02,30,7.60
2013,04,29,02,31,7.50
2013,04,29,02,32,7.50
2013,04,29,02,33,7.50
2013,04,29,02,34,7.50
2013,04,29,02,35,7.40
2013,04,29,02,36,7.30
2013,04,29,02,37,7.20
2013,04,29,02,38,7.10
2013,04,29,02,39,7.00
2013,04,29,02,40,6.90
2013,04,29,02,41,6.80
2013,04,29,02,42,6.70
2013,04,29,02,43,6.60
2013,04,29,02,44,6.50
2013,04,29,02,45,6.40
2013,04,29,02,46,6.40
2013,04,29,02,47,6.30
2013,04,29,02,48,6.30
2013,04,29,02,49,6.30
2013,04,29,02,50,6.30
2013,04,29,02,51,6.30
2013,04,29,02,52,6.30
2013,04,29,02,53,6.40
2013,04,29,02,54,6.30
2013,04,29,02,55,6.30
2013,04,29,02,56,6.30
2013,04,29,02,57,6.20
2013,04,29,02,58,6.20
2013,04,29,02,59,6.20
2013,04,29,03,00,6.10
2013,04,29,03,01,6.10
2013,04,29,03,02,6.10
2013,04,29,03,03,6.10
2013,04,29,03,04,6.10
2013,04,29,03,05,6.10
2013,04,29,03,06,6.10
2013,04,29,03,07,6.10
2013,04,29,03,08,6.10
2013,04,29,03,09,6.10
2013,04,29,03,10,6.10
2013,04,29,03,11,6.10
2013,04,29,03,12,6.10
2013,04,29,03,13,6.10
2013,04,29,03,14,6.10
2013,04,29,03,15,6.10
2013,04,29,03,16,6.10
2013,04,29,03,17,6.10
2013,04,29,03,18,6.10
2013,04,29,03,19,6.10
2013,04,29,03,20,6.10
2013,04,29,03,21,6.10
2013,04,29,03,22,6.10
2013,04,29,03,23,6.00
2013,04,29,03,24,5.90
2013,04,29,03,25,5.90
2013,04,29,03,26,5.90
2013,04,29,03,27,5.80
2013,04,29,03,28,5.70
2013,04,29,03,29,5.70
2013,04,29,03,30,5.70
2013,04,29,03,31,5.70
2013,04,29,03,32,5.70
2013,04,29,03,33,5.60
2013,04,29,03,34,5.60
2013,04,29,03,35,5.60
2013,04,29,03,36,5.60
2013,04,29,03,37,5.50
2013,04,29,03,38,5.50
2013,04,29,03,39,5.40
2013,04,29,03,40,5.40
2013,04,29,03,41,5.40
2013,04,29,03,42,5.40
2013,04,29,03,43,5.40
2013,04,29,03,44,5.40
2013,04,29,03,45,5.40
2013,04,29,03,46,5.50
2013,04,29,03,47,5.40
2013,04,29,03,48,5.40
2013,04,29,03,49,5.50
2013,04,29,03,50,5.50
2013,04,29,03,51,5.50
2013,04,29,03,52,5.50
2013,04,29,03,53,5.50
2013,04,29,03,54,5.50
2013,04,29,03,55,5.50
2013,04,29,03,56,5.50
2013,04,29,03,57,5.50
2013,04,29,03,58,5.50
2013,04,29,03,59,5.40
2013,04,29,04,00,5.40
2013,04,29,04,01,5.40
2013,04,29,04,02,5.30
2013,04,29,04,03,5.30
2013,04,29,04,04,5.30
2013,04,29,04,05,5.30
2013,04,29,04,06,5.30
2013,04,29,04,07,5.30
2013,04,29,04,08,5.30
2013,04,29,04,09,5.20
2013,04,29,04,10,5.20
2013,04,29,04,11,5.20
2013,04,29,04,12,5.20
2013,04,29,04,13,5.20
2013,04,29,04,14,5.20
2013,04,29,04,15,5.20
2013,04,29,04,16,5.20
2013,04,29,04,17,5.20
2013,04,29,04,18,5.20
2013,04,29,04,19,5.10
2013,04,29,04,20,5.10
2013,04,29,04,21,5.10
2013,04,29,04,22,5.10
2013,04,29,04,23,5.10
2013,04,29,04,24,5.10
2013,04,29,04,25,5.10
2013,04,29,04,26,5.10
2013,04,29,04,27,5.10
2013,04,29,04,28,5.10
2013,04,29,04,29,5.10
2013,04,29,04,30,5.00
2013,04,29,04,31,5.00
2013,04,29,04,32,5.00
2013,04,29,04,33,5.00
2013,04,29,04,34,4.90
2013,04,29,04,35,4.90
2013,04,29,04,36,4.90
2013,04,29,04,37,4.90
2013,04,29,04,38,4.90
2013,04,29,04,39,4.90
2013,04,29,04,40,4.90
2013,04,29,04,41,4.90
2013,04,29,04,42,4.90
2013,04,29,04,43,4.90
2013,04,29,04,44,4.90
2013,04,29,04,45,4.90
2013,04,29,04,46,4.90
2013,04,29,04,47,4.90
2013,04,29,04,48,4.90
2013,04,29,04,49,4.90
2013,04,29,04,50,4.90
2013,04,29,04,51,4.90
2013,04,29,04,52,4.90
2013,04,29,04,53,4.90
2013,04,29,04,54,4.90
2013,04,29,04,55,4.90
2013,04,29,04,56,4.90
2013,04,29,04,57,4.90
2013,04,29,04,58,4.90
2013,04,29,04,59,4.90
2013,04,29,05,00,4.90
2013,04,29,05,01,4.90
2013,04,29,05,02,4.80
2013,04,29,05,03,4.80
2013,04,29,05,04,4.80
2013,04,29,05,05,4.80
2013,04,29,05,06,4.80
2013,04,29,05,07,4.80
2013,04,29,05,08,4.80
2013,04,29,05,09,4.80
2013,04,29,05,10,4.80
2013,04,29,05,11,4.90
2013,04,29,05,12,4.90
2013,04,29,05,13,4.90
2013,04,29,05,14,4.90
2013,04,29,05,15,4.90
2013,04,29,05,16,4.90
2013,04,29,05,17,4.90
2013,04,29,05,18,4.90
2013,04,29,05,19,4.90
2013,04,29,05,20,4.90
2013,04,29,05,21,4.90
2013,04,29,05,22,4.90
2013,04,29,05,23,5.00
2013,04,29,05,24,5.00
2013,04,29,05,25,5.00
2013,04,29,05,26,5.10
2013,04,29,05,27,5.10
2013,04,29,05,28,5.10
2013,04,29,05,29,5.10
2013,04,29,05,30,5.10
2013,04,29,05,31,5.10
2013,04,29,05,32,5.10
2013,04,29,05,33,5.10
2013,04,29,05,34,5.10
2013,04,29,05,35,5.10
2013,04,29,05,36,5.10
2013,04,29,05,37,5.10
2013,04,29,05,38,5.10
2013,04,29,05,39,5.10
2013,04,29,05,40,5.10
2013,04,29,05,41,5.10
2013,04,29,05,42,5.10
2013,04,29,05,43,5.10
2013,04,29,05,44,5.20
2013,04,29,05,45,5.10
2013,04,29,05,46,5.10
2013,04,29,05,47,5.10
2013,04,29,05,48,5.10
2013,04,29,05,49,5.10
2013,04,29,05,50,5.10
2013,04,29,05,51,5.10
2013,04,29,05,52,5.10
2013,04,29,05,53,5.10
2013,04,29,05,54,5.10
2013,04,29,05,55,5.10
2013,04,29,05,56,5.10
2013,04,29,05,57,5.10
2013,04,29,05,58,5.10
2013,04,29,05,59,5.10
2013,04,29,06,00,5.10
2013,04,29,06,01,5.10
2013,04,29,06,02,5.10
2013,04,29,06,03,5.10
2013,04,29,06,04,5.10
2013,04,29,06,05,5.10
2013,04,29,06,06,5.20
2013,04,29,06,07,5.20
2013,04,29,06,08,5.20
2013,04,29,06,09,5.20
2013,04,29,06,10,5.20
2013,04,29,06,11,5.20
2013,04,29,06,12,5.20
2013,04,29,06,13,5.20
2013,04,29,06,14,5.20
2013,04,29,06,15,5.20
2013,04,29,06,16,5.10
2013,04,29,06,17,5.10
2013,04,29,06,18,5.10
2013,04,29,06,19,5.10
2013,04,29,06,20,5.10
2013,04,29,06,21,5.10
2013,04,29,06,22,5.10
2013,04,29,06,23,5.10
2013,04,29,06,24,5.10
2013,04,29,06,25,5.20
2013,04,29,06,26,5.20
2013,04,29,06,27,5.20
2013,04,29,06,28,5.20
2013,04,29,06,29,5.30
2013,04,29,06,30,5.30
2013,04,29,06,31,5.30
2013,04,29,06,32,5.30
2013,04,29,06,33,5.30
2013,04,29,06,34,5.30
2013,04,29,06,35,5.30
2013,04,29,06,36,5.30
2013,04,29,06,37,5.30
2013,04,29,06,38,5.30
2013,04,29,06,39,5.30
2013,04,29,06,40,5.40
2013,04,29,06,41,5.40
2013,04,29,06,42,5.40
2013,04,29,06,43,5.40
2013,04,29,06,44,5.40
2013,04,29,06,45,5.40
2013,04,29,06,46,5.40
2013,04,29,06,47,5.50
2013,04,29,06,48,5.50
2013,04,29,06,49,5.50
2013,04,29,06,50,5.60
2013,04,29,06,51,5.60
2013,04,29,06,52,5.60
2013,04,29,06,53,5.70
2013,04,29,06,54,5.70
2013,04,29,06,55,5.70
2013,04,29,06,56,5.80
2013,04,29,06,57,5.90
2013,04,29,06,58,5.90
2013,04,29,06,59,6.00
2013,04,29,07,00,6.00
2013,04,29,07,01,6.10
2013,04,29,07,02,6.20
2013,04,29,07,03,6.20
2013,04,29,07,04,6.30
2013,04,29,07,05,6.30
2013,04,29,07,06,6.40
2013,04,29,07,07,6.40
2013,04,29,07,08,6.50
2013,04,29,07,09,6.50
2013,04,29,07,10,6.50
2013,04,29,07,11,6.60
2013,04,29,07,12,6.60
2013,04,29,07,13,6.60
2013,04,29,07,14,6.60
2013,04,29,07,15,6.70
2013,04,29,07,16,6.70
2013,04,29,07,17,6.70
2013,04,29,07,18,6.70
2013,04,29,07,19,6.70
2013,04,29,07,20,6.70
2013,04,29,07,21,6.70
2013,04,29,07,22,6.80
2013,04,29,07,23,6.80
2013,04,29,07,24,6.80
2013,04,29,07,25,6.80
2013,04,29,07,26,6.90
2013,04,29,07,27,6.90
2013,04,29,07,28,6.90
2013,04,29,07,29,6.90
2013,04,29,07,30,6.90
2013,04,29,07,31,6.90
2013,04,29,07,32,6.80
2013,04,29,07,33,6.80
2013,04,29,07,34,6.80
2013,04,29,07,35,6.80
2013,04,29,07,36,6.80
2013,04,29,07,37,6.80
2013,04,29,07,38,6.90
2013,04,29,07,39,6.90
2013,04,29,07,40,6.90
2013,04,29,07,41,6.90
2013,04,29,07,42,6.90
2013,04,29,07,43,6.90
2013,04,29,07,44,6.90
2013,04,29,07,45,6.90
2013,04,29,07,46,6.90
2013,04,29,07,47,6.90
2013,04,29,07,48,6.90
2013,04,29,07,49,6.90
2013,04,29,07,50,7.00
2013,04,29,07,51,7.00
2013,04,29,07,52,7.00
2013,04,29,07,53,7.10
2013,04,29,07,54,7.10
2013,04,29,07,55,7.10
2013,04,29,07,56,7.10
2013,04,29,07,57,7.10
2013,04,29,07,58,7.10
2013,04,29,07,59,7.10
2013,04,29,08,00,7.10
2013,04,29,08,01,7.10
2013,04,29,08,02,7.10
2013,04,29,08,03,7.10
2013,04,29,08,04,7.10
2013,04,29,08,05,7.10
2013,04,29,08,06,7.10
2013,04,29,08,07,7.10
2013,04,29,08,08,7.10
2013,04,29,08,09,7.10
2013,04,29,08,10,7.20
2013,04,29,08,11,7.20
2013,04,29,08,12,7.20
2013,04,29,08,13,7.20
2013,04,29,08,14,7.20
2013,04,29,08,15,7.20
2013,04,29,08,16,7.30
2013,04,29,08,17,7.30
2013,04,29,08,18,7.30
2013,04,29,08,19,7.30
2013,04,29,08,20,7.30
2013,04,29,08,21,7.30
2013,04,29,08,22,7.30
2013,04,29,08,23,7.30
2013,04,29,08,24,7.20
2013,04,29,08,25,7.20
2013,04,29,08,26,7.20
2013,04,29,08,27,7.20
2013,04,29,08,28,7.20
2013,04,29,08,29,7.20
2013,04,29,08,30,7.20
2013,04,29,08,31,7.20
2013,04,29,08,32,7.20
2013,04,29,08,33,7.30
2013,04,29,08,34,7.30
2013,04,29,08,35,7.30
2013,04,29,08,36,7.30
2013,04,29,08,37,7.20
2013,04,29,08,38,7.20
2013,04,29,08,39,7.20
2013,04,29,08,40,7.20
2013,04,29,08,41,7.30
2013,04,29,08,42,7.30
2013,04,29,08,43,7.30
2013,04,29,08,44,7.30
2013,04,29,08,45,7.40
2013,04,29,08,46,7.40
2013,04,29,08,47,7.30
2013,04,29,08,48,7.30
2013,04,29,08,49,7.30
2013,04,29,08,50,7.30
2013,04,29,08,51,7.30
2013,04,29,08,52,7.30
2013,04,29,08,53,7.30
2013,04,29,08,54,7.30
2013,04,29,08,55,7.30
2013,04,29,08,56,7.30
2013,04,29,08,57,7.40
2013,04,29,08,58,7.40
2013,04,29,08,59,7.40
2013,04,29,09,00,7.40
2013,04,29,09,01,7.50
2013,04,29,09,02,7.60
2013,04,29,09,03,7.50
2013,04,29,09,04,7.50
2013,04,29,09,05,7.40
2013,04,29,09,06,7.50
2013,04,29,09,07,7.50
2013,04,29,09,08,7.60
2013,04,29,09,09,7.60
2013,04,29,09,10,7.50
2013,04,29,09,11,7.50
2013,04,29,09,12,7.50
2013,04,29,09,13,7.40
2013,04,29,09,14,7.40
2013,04,29,09,15,7.50
2013,04,29,09,16,7.60
2013,04,29,09,17,7.60
2013,04,29,09,18,7.50
2013,04,29,09,19,7.50
2013,04,29,09,20,7.50
2013,04,29,09,21,7.40
2013,04,29,09,22,7.40
2013,04,29,09,23,7.40
2013,04,29,09,24,7.40
2013,04,29,09,25,7.40
2013,04,29,09,26,7.40
2013,04,29,09,27,7.40
2013,04,29,09,28,7.40
2013,04,29,09,29,7.50
2013,04,29,09,30,7.50
2013,04,29,09,31,7.60
2013,04,29,09,32,7.60
2013,04,29,09,33,7.70
2013,04,29,09,34,7.70
2013,04,29,09,35,7.70
2013,04,29,09,36,7.70
2013,04,29,09,37,7.70
2013,04,29,09,38,7.70
2013,04,29,09,39,7.70
2013,04,29,09,40,7.70
2013,04,29,09,41,7.70
2013,04,29,09,42,7.70
2013,04,29,09,43,7.70
2013,04,29,09,44,7.70
2013,04,29,09,45,7.70
2013,04,29,09,46,7.70
2013,04,29,09,47,7.70
2013,04,29,09,48,7.70
2013,04,29,09,49,7.70
2013,04,29,09,50,7.80
2013,04,29,09,51,7.80
2013,04,29,09,52,7.80
2013,04,29,09,53,7.80
2013,04,29,09,54,7.80
2013,04,29,09,55,7.70
2013,04,29,09,56,7.70
2013,04,29,09,57,7.60
2013,04,29,09,58,7.60
2013,04,29,09,59,7.60
2013,04,29,10,00,7.60
2013,04,29,10,01,7.60
2013,04,29,10,02,7.60
2013,04,29,10,03,7.60
2013,04,29,10,04,7.60
2013,04,29,10,05,7.60
2013,04,29,10,06,7.70
2013,04,29,10,07,7.80
2013,04,29,10,08,7.80
2013,04,29,10,09,7.80
2013,04,29,10,10,7.80
2013,04,29,10,11,7.80
2013,04,29,10,12,7.80
2013,04,29,10,13,7.80
2013,04,29,10,14,7.70
2013,04,29,10,15,7.70
2013,04,29,10,16,7.70
2013,04,29,10,17,7.80
2013,04,29,10,18,7.80
2013,04,29,10,19,7.80
2013,04,29,10,20,7.80
2013,04,29,10,21,7.90
2013,04,29,10,22,8.00
2013,04,29,10,23,8.00
2013,04,29,10,24,8.00
2013,04,29,10,25,8.10
2013,04,29,10,26,8.10
2013,04,29,10,27,8.00
2013,04,29,10,28,8.00
2013,04,29,10,29,8.00
2013,04,29,10,30,7.90
2013,04,29,10,31,7.90
2013,04,29,10,32,8.00
2013,04,29,10,33,8.00
2013,04,29,10,34,8.00
2013,04,29,10,35,8.00
2013,04,29,10,36,8.00
2013,04,29,10,37,8.10
2013,04,29,10,38,8.10
2013,04,29,10,39,8.10
2013,04,29,10,40,8.10
2013,04,29,10,41,8.00
2013,04,29,10,42,8.00
2013,04,29,10,43,8.00
2013,04,29,10,44,8.10
2013,04,29,10,45,8.10
2013,04,29,10,46,8.20
2013,04,29,10,47,8.10
2013,04,29,10,48,8.10
2013,04,29,10,49,8.10
2013,04,29,10,50,8.10
2013,04,29,10,51,8.20
2013,04,29,10,52,8.20
2013,04,29,10,53,8.20
2013,04,29,10,54,8.10
2013,04,29,10,55,8.00
2013,04,29,10,56,8.00
2013,04,29,10,57,8.10
2013,04,29,10,58,8.10
2013,04,29,10,59,8.10
2013,04,29,11,00,8.20
2013,04,29,11,01,8.20
2013,04,29,11,02,8.20
2013,04,29,11,03,8.20
2013,04,29,11,04,8.30
2013,04,29,11,05,8.30
2013,04,29,11,06,8.30
2013,04,29,11,07,8.20
2013,04,29,11,08,8.20
2013,04,29,11,09,8.20
2013,04,29,11,10,8.30
2013,04,29,11,11,8.30
2013,04,29,11,12,8.30
2013,04,29,11,13,8.40
2013,04,29,11,14,8.40
2013,04,29,11,15,8.40
2013,04,29,11,16,8.40
2013,04,29,11,17,8.40
2013,04,29,11,18,8.40
2013,04,29,11,19,8.30
2013,04,29,11,20,8.30
2013,04,29,11,21,8.30
2013,04,29,11,22,8.30
2013,04,29,11,23,8.30
2013,04,29,11,24,8.30
2013,04,29,11,25,8.30
2013,04,29,11,26,8.20
2013,04,29,11,27,8.30
2013,04,29,11,28,8.30
2013,04,29,11,29,8.30
2013,04,29,11,30,8.30
2013,04,29,11,31,8.30
2013,04,29,11,32,8.30
2013,04,29,11,33,8.30
2013,04,29,11,34,8.40
2013,04,29,11,35,8.40
2013,04,29,11,36,8.50
2013,04,29,11,37,8.50
2013,04,29,11,38,8.50
2013,04,29,11,39,8.60
2013,04,29,11,40,8.60
2013,04,29,11,41,8.60
2013,04,29,11,42,8.60
2013,04,29,11,43,8.60
2013,04,29,11,44,8.60
2013,04,29,11,45,8.60
2013,04,29,11,46,8.60
2013,04,29,11,47,8.60
2013,04,29,11,48,8.60
2013,04,29,11,49,8.60
2013,04,29,11,50,8.60
2013,04,29,11,51,8.60
2013,04,29,11,52,8.60
2013,04,29,11,53,8.60
2013,04,29,11,54,8.60
2013,04,29,11,55,8.50
2013,04,29,11,56,8.40
2013,04,29,11,57,8.40
2013,04,29,11,58,8.40
2013,04,29,11,59,8.40
2013,04,29,12,00,8.40
2013,04,29,12,01,8.40
2013,04,29,12,02,8.40
2013,04,29,12,03,8.40
2013,04,29,12,04,8.40
2013,04,29,12,05,8.30
2013,04,29,12,06,8.40
2013,04,29,12,07,8.30
2013,04,29,12,08,8.30
2013,04,29,12,09,8.30
2013,04,29,12,10,8.40
2013,04,29,12,11,8.40
2013,04,29,12,12,8.50
2013,04,29,12,13,8.50
2013,04,29,12,14,8.60
2013,04,29,12,15,8.60
2013,04,29,12,16,8.70
2013,04,29,12,17,8.70
2013,04,29,12,18,8.70
2013,04,29,12,19,8.70
2013,04,29,12,20,8.70
2013,04,29,12,21,8.70
2013,04,29,12,22,8.80
2013,04,29,12,23,8.80
2013,04,29,12,24,8.80
2013,04,29,12,25,8.80
2013,04,29,12,26,8.80
2013,04,29,12,27,8.80
2013,04,29,12,28,8.80
2013,04,29,12,29,8.80
2013,04,29,12,30,8.90
2013,04,29,12,31,8.90
2013,04,29,12,32,8.90
2013,04,29,12,33,8.90
2013,04,29,12,34,8.90
2013,04,29,12,35,8.90
2013,04,29,12,36,9.00
2013,04,29,12,37,9.10
2013,04,29,12,38,9.20
2013,04,29,12,39,9.20
2013,04,29,12,40,9.20
2013,04,29,12,41,9.20
2013,04,29,12,42,9.10
2013,04,29,12,43,9.10
2013,04,29,12,44,9.00
2013,04,29,12,45,8.90
2013,04,29,12,46,8.90
2013,04,29,12,47,8.90
2013,04,29,12,48,8.90
2013,04,29,12,49,8.80
2013,04,29,12,50,8.90
2013,04,29,12,51,8.80
2013,04,29,12,52,8.80
2013,04,29,12,53,8.70
2013,04,29,12,54,8.70
2013,04,29,12,55,8.60
2013,04,29,12,56,8.60
2013,04,29,12,57,8.70
2013,04,29,12,58,8.70
2013,04,29,12,59,8.80
2013,04,29,13,00,8.90
2013,04,29,13,01,9.00
2013,04,29,13,02,9.10
2013,04,29,13,03,9.10
2013,04,29,13,04,9.10
2013,04,29,13,05,9.10
2013,04,29,13,06,9.10
2013,04,29,13,07,9.10
2013,04,29,13,08,9.20
2013,04,29,13,09,9.10
2013,04,29,13,10,9.10
2013,04,29,13,11,9.00
2013,04,29,13,12,9.00
2013,04,29,13,13,9.00
2013,04,29,13,14,9.00
2013,04,29,13,15,9.10
2013,04,29,13,16,9.10
2013,04,29,13,17,9.10
2013,04,29,13,18,9.10
2013,04,29,13,19,9.10
2013,04,29,13,20,9.10
2013,04,29,13,21,9.10
2013,04,29,13,22,9.10
2013,04,29,13,23,9.20
2013,04,29,13,24,9.30
2013,04,29,13,25,9.30
2013,04,29,13,26,9.30
2013,04,29,13,27,9.20
2013,04,29,13,28,9.20
2013,04,29,13,29,9.20
2013,04,29,13,30,9.20
2013,04,29,13,31,9.20
2013,04,29,13,32,9.30
2013,04,29,13,33,9.30
2013,04,29,13,34,9.30
2013,04,29,13,35,9.30
2013,04,29,13,36,9.40
2013,04,29,13,37,9.30
2013,04,29,13,38,9.20
2013,04,29,13,39,9.20
2013,04,29,13,40,9.20
2013,04,29,13,41,9.20
2013,04,29,13,42,9.30
2013,04,29,13,43,9.30
2013,04,29,13,44,9.30
2013,04,29,13,45,9.40
2013,04,29,13,46,9.40
2013,04,29,13,47,9.50
2013,04,29,13,48,9.60
2013,04,29,13,49,9.50
2013,04,29,13,50,9.50
2013,04,29,13,51,9.40
2013,04,29,13,52,9.30
2013,04,29,13,53,9.30
2013,04,29,13,54,9.20
2013,04,29,13,55,9.10
2013,04,29,13,56,9.10
2013,04,29,13,57,9.00
2013,04,29,13,58,9.00
2013,04,29,13,59,9.00
2013,04,29,14,00,9.10
2013,04,29,14,01,9.20
2013,04,29,14,02,9.30
2013,04,29,14,03,9.30
2013,04,29,14,04,9.30
2013,04,29,14,05,9.40
2013,04,29,14,06,9.40
2013,04,29,14,07,9.50
2013,04,29,14,08,9.50
2013,04,29,14,09,9.60
2013,04,29,14,10,9.60
2013,04,29,14,11,9.50
2013,04,29,14,12,9.50
2013,04,29,14,13,9.50
2013,04,29,14,14,9.50
2013,04,29,14,15,9.40
2013,04,29,14,16,9.30
2013,04,29,14,17,9.30
2013,04,29,14,18,9.20
2013,04,29,14,19,9.20
2013,04,29,14,20,9.10
2013,04,29,14,21,9.10
2013,04,29,14,22,9.00
2013,04,29,14,23,8.90
2013,04,29,14,24,9.00
2013,04,29,14,25,9.00
2013,04,29,14,26,9.00
2013,04,29,14,27,9.00
2013,04,29,14,28,9.10
2013,04,29,14,29,9.10
2013,04,29,14,30,9.10
2013,04,29,14,31,9.20
2013,04,29,14,32,9.20
2013,04,29,14,33,9.10
2013,04,29,14,34,9.20
2013,04,29,14,35,9.20
2013,04,29,14,36,9.20
2013,04,29,14,37,9.10
2013,04,29,14,38,9.10
2013,04,29,14,39,9.00
2013,04,29,14,40,9.00
2013,04,29,14,41,8.90
2013,04,29,14,42,8.90
2013,04,29,14,43,9.10
2013,04,29,14,44,9.20
2013,04,29,14,45,9.20
2013,04,29,14,46,9.20
2013,04,29,14,47,9.20
2013,04,29,14,48,9.20
2013,04,29,14,49,9.10
2013,04,29,14,50,9.00
2013,04,29,14,51,8.90
2013,04,29,14,52,8.90
2013,04,29,14,53,8.90
2013,04,29,14,54,9.00
2013,04,29,14,55,9.10
2013,04,29,14,56,9.10
2013,04,29,14,57,9.10
2013,04,29,14,58,9.10
2013,04,29,14,59,9.10
2013,04,29,15,00,9.10
2013,04,29,15,01,9.10
2013,04,29,15,02,9.10
2013,04,29,15,03,9.10
2013,04,29,15,04,9.00
2013,04,29,15,05,9.00
2013,04,29,15,06,9.10
2013,04,29,15,07,9.10
2013,04,29,15,08,9.10
2013,04,29,15,09,9.20
2013,04,29,15,10,9.30
2013,04,29,15,11,9.20
2013,04,29,15,12,9.20
2013,04,29,15,13,9.20
2013,04,29,15,14,9.20
2013,04,29,15,15,9.20
2013,04,29,15,16,9.20
2013,04,29,15,17,9.30
2013,04,29,15,18,9.30
2013,04,29,15,19,9.30
2013,04,29,15,20,9.30
2013,04,29,15,21,9.40
2013,04,29,15,22,9.40
2013,04,29,15,23,9.50
2013,04,29,15,24,9.50
2013,04,29,15,25,9.60
2013,04,29,15,26,9.60
2013,04,29,15,27,9.70
2013,04,29,15,28,9.80
2013,04,29,15,29,9.80
2013,04,29,15,30,9.80
2013,04,29,15,31,9.70
2013,04,29,15,32,9.70
2013,04,29,15,33,9.60
2013,04,29,15,34,9.60
2013,04,29,15,35,9.60
2013,04,29,15,36,9.60
2013,04,29,15,37,9.60
2013,04,29,15,38,9.60
2013,04,29,15,39,9.60
2013,04,29,15,40,9.60
2013,04,29,15,41,9.60
2013,04,29,15,42,9.60
2013,04,29,15,43,9.60
2013,04,29,15,44,9.70
2013,04,29,15,45,9.70
2013,04,29,15,46,9.70
2013,04,29,15,47,9.70
2013,04,29,15,48,9.70
2013,04,29,15,49,9.80
2013,04,29,15,50,9.80
2013,04,29,15,51,9.90
2013,04,29,15,52,9.90
2013,04,29,15,53,9.90
2013,04,29,15,54,9.90
2013,04,29,15,55,9.80
2013,04,29,15,56,9.80
2013,04,29,15,57,9.90
2013,04,29,15,58,9.90
2013,04,29,15,59,9.80
2013,04,29,16,00,9.70
2013,04,29,16,01,9.70
2013,04,29,16,02,9.70
2013,04,29,16,03,9.70
2013,04,29,16,04,9.70
2013,04,29,16,05,9.60
2013,04,29,16,06,9.60
2013,04,29,16,07,9.60
2013,04,29,16,08,9.60
2013,04,29,16,09,9.70
2013,04,29,16,10,9.70
2013,04,29,16,11,9.70
2013,04,29,16,12,9.70
2013,04,29,16,13,9.70
2013,04,29,16,14,9.70
2013,04,29,16,15,9.70
2013,04,29,16,16,9.70
2013,04,29,16,17,9.80
2013,04,29,16,18,9.80
2013,04,29,16,19,9.90
2013,04,29,16,20,9.90
2013,04,29,16,21,9.90
2013,04,29,16,22,9.90
2013,04,29,16,23,9.90
2013,04,29,16,24,9.80
2013,04,29,16,25,9.80
2013,04,29,16,26,9.90
2013,04,29,16,27,9.80
2013,04,29,16,28,9.80
2013,04,29,16,29,9.80
2013,04,29,16,30,9.80
2013,04,29,16,31,9.80
2013,04,29,16,32,9.70
2013,04,29,16,33,9.70
2013,04,29,16,34,9.70
2013,04,29,16,35,9.70
2013,04,29,16,36,9.60
2013,04,29,16,37,9.60
2013,04,29,16,38,9.60
2013,04,29,16,39,9.60
2013,04,29,16,40,9.50
2013,04,29,16,41,9.50
2013,04,29,16,42,9.60
2013,04,29,16,43,9.60
2013,04,29,16,44,9.60
2013,04,29,16,45,9.60
2013,04,29,16,46,9.70
2013,04,29,16,47,9.70
2013,04,29,16,48,9.60
2013,04,29,16,49,9.60
2013,04,29,16,50,9.60
2013,04,29,16,51,9.60
2013,04,29,16,52,9.70
2013,04,29,16,53,9.70
2013,04,29,16,54,9.70
2013,04,29,16,55,9.80
2013,04,29,16,56,9.80
2013,04,29,16,57,9.80
2013,04,29,16,58,9.80
2013,04,29,16,59,9.80
2013,04,29,17,00,9.70
2013,04,29,17,01,9.70
2013,04,29,17,02,9.60
2013,04,29,17,03,9.60
2013,04,29,17,04,9.60
2013,04,29,17,05,9.60
2013,04,29,17,06,9.50
2013,04,29,17,07,9.40
2013,04,29,17,08,9.40
2013,04,29,17,09,9.50
2013,04,29,17,10,9.50
2013,04,29,17,11,9.50
2013,04,29,17,12,9.60
2013,04,29,17,13,9.60
2013,04,29,17,14,9.60
2013,04,29,17,15,9.60
2013,04,29,17,16,9.60
2013,04,29,17,17,9.60
2013,04,29,17,18,9.60
2013,04,29,17,19,9.70
2013,04,29,17,20,9.70
2013,04,29,17,21,9.80
2013,04,29,17,22,9.90
2013,04,29,17,23,10.00
2013,04,29,17,24,10.00
2013,04,29,17,25,10.10
2013,04,29,17,26,10.20
2013,04,29,17,27,10.20
2013,04,29,17,28,10.20
2013,04,29,17,29,10.30
2013,04,29,17,30,10.30
2013,04,29,17,31,10.40
2013,04,29,17,32,10.50
2013,04,29,17,33,10.60
2013,04,29,17,34,10.50
2013,04,29,17,35,10.50
2013,04,29,17,36,10.50
2013,04,29,17,37,10.50
2013,04,29,17,38,10.50
2013,04,29,17,39,10.50
2013,04,29,17,40,10.50
2013,04,29,17,41,10.40
2013,04,29,17,42,10.40
2013,04,29,17,43,10.40
2013,04,29,17,44,10.30
2013,04,29,17,45,10.30
2013,04,29,17,46,10.20
2013,04,29,17,47,10.20
2013,04,29,17,48,10.20
2013,04,29,17,49,10.20
2013,04,29,17,50,10.20
2013,04,29,17,51,10.20
2013,04,29,17,52,10.20
2013,04,29,17,53,10.10
2013,04,29,17,54,10.10
2013,04,29,17,55,10.00
2013,04,29,17,56,10.00
2013,04,29,17,57,9.90
2013,04,29,17,58,9.90
2013,04,29,17,59,9.80
2013,04,29,18,00,9.80
2013,04,29,18,01,9.80
2013,04,29,18,02,9.80
2013,04,29,18,03,9.80
2013,04,29,18,04,9.90
2013,04,29,18,05,9.90